Hondo, TX

8:49 PM CST on December 08, 2019 (GMT -0600)
Hondo Municipal

Weather History for KHDO - October, 2019

Change the Weather History Date:

Sunday, October 13, 2019

  Actual Average Record
Temperature  
Mean Temperature 70 °F -  
Max Temperature 82 °F 80 °F 96 °F (2015)
Min Temperature 61 °F 57 °F 50 °F (1997)
Cooling Degree Days 6    
Growing Degree Days 20 (Base 50)    
Moisture  
Dew Point 40 °F    
Average Humidity 33    
Maximum Humidity 46    
Minimum Humidity 23    
Precipitation  
Precipitation 0.00 in - - ()
Sea Level Pressure  
Sea Level Pressure 29.99 in    
Wind  
Wind Speed 4 mph (SE)    
Max Wind Speed 10 mph    
Max Gust Speed -    
Visibility 10 miles    
Events      
Averages and records for this station are not official NWS values.
T = Trace of Precipitation, MM = Missing Value Source: NWS Daily Summary

Daily Weather History Graph

Daily Weather History Graph

Search for Another Location

Airport or City:

Astronomy

Oct. 13, 2019 Rise Set
Actual Time 7:36 AM CDT 7:08 PM CDT
Civil Twilight 7:12 AM CDT 7:32 PM CDT
Nautical Twilight 6:45 AM CDT 8:00 PM CDT
Astronomical Twilight 6:17 AM CDT 8:27 PM CDT
Moon 7:27 PM CDT (10/13) 7:18 AM CDT (10/13)
Length of Visible Light 12h 19m
Length of Day
11h 31m
Full, 100% of the Moon is Illuminated
Oct 13
Full
Oct 13
Full
Oct 21
Last Quarter
Oct 27
New
Nov 4
First Quarter

Hourly Weather History & Observations

Time (CDT) Temp. Dew Point Humidity Pressure Visibility Wind Dir Wind Speed Gust Speed Precip Events Conditions
12:51 AM 64.0 °F 30.0 °F 28% 30.02 in 10.0 mi SE 6.9 mph - N/A   Clear
1:51 AM 63.0 °F 28.9 °F 28% 30.01 in 10.0 mi SE 9.2 mph - N/A   Overcast
2:51 AM 63.0 °F 28.9 °F 28% 30.01 in 10.0 mi SSE 5.8 mph - N/A   Scattered Clouds
3:51 AM 63.0 °F 30.9 °F 30% 30.01 in 10.0 mi Calm Calm - N/A   Overcast
4:51 AM 63.0 °F 32.0 °F 31% 30.00 in 10.0 mi East 3.5 mph - N/A   Overcast
5:51 AM 62.1 °F 30.9 °F 31% 30.01 in 10.0 mi East 3.5 mph - N/A   Overcast
6:51 AM 62.1 °F 32.0 °F 32% 30.01 in 10.0 mi Calm Calm - N/A   Overcast
7:51 AM 61.0 °F 33.1 °F 35% 30.01 in 10.0 mi NE 4.6 mph - N/A   Overcast
8:51 AM 63.0 °F 32.0 °F 31% 30.01 in 10.0 mi Calm Calm - N/A   Mostly Cloudy
9:51 AM 68.0 °F 32.0 °F 26% 30.03 in 10.0 mi Calm Calm - N/A   Clear
10:51 AM 71.1 °F 33.1 °F 25% 30.04 in 10.0 mi SW 6.9 mph - N/A   Mostly Cloudy
11:51 AM 73.0 °F 35.1 °F 25% 30.02 in 10.0 mi Variable 3.5 mph - N/A   Overcast
12:12 PM 75.0 °F 35.1 °F 23% 30.05 in 2.5 mi SW 3.5 mph - N/A   Haze
12:20 PM 75.0 °F 35.1 °F 23% 30.05 in 10.0 mi Variable 3.5 mph - N/A   Mostly Cloudy
12:51 PM 77.0 °F 37.0 °F 24% 30.01 in 10.0 mi SSW 4.6 mph - N/A   Overcast
1:51 PM 77.0 °F 42.1 °F 29% 29.98 in 10.0 mi Calm Calm - N/A   Overcast
2:51 PM 77.0 °F 44.1 °F 31% 29.95 in 10.0 mi South 5.8 mph - N/A   Overcast
3:28 PM 79.0 °F 46.0 °F 31% 29.98 in 10.0 mi SSW 5.8 mph - N/A   Overcast
3:35 PM 78.1 °F 46.9 °F 33% 29.98 in 10.0 mi Variable 3.5 mph - N/A   Overcast
3:51 PM 79.0 °F 48.9 °F 35% 29.94 in 10.0 mi Calm Calm - N/A   Overcast
4:51 PM 80.1 °F 51.1 °F 36% 29.93 in 10.0 mi South 6.9 mph - N/A   Mostly Cloudy
5:51 PM 79.0 °F 54.0 °F 42% 29.92 in 10.0 mi SSE 10.4 mph - N/A   Mostly Cloudy
6:51 PM 78.1 °F 52.0 °F 40% 29.93 in 10.0 mi SE 4.6 mph - N/A   Clear
7:51 PM 75.9 °F 52.0 °F 43% 29.94 in 10.0 mi East 3.5 mph - N/A   Clear
8:51 PM 75.0 °F 52.0 °F 44% 29.95 in 10.0 mi ESE 5.8 mph - N/A   Overcast
9:51 PM 75.0 °F 52.0 °F 44% 29.96 in 10.0 mi NE 3.5 mph - N/A   Overcast
10:51 PM 75.0 °F 53.1 °F 46% 29.96 in 10.0 mi ESE 3.5 mph - N/A   Overcast
11:51 PM 75.0 °F 53.1 °F 46% 29.96 in 10.0 mi Calm Calm - N/A   Overcast